TimeEDT,TemperatureF,Dew PointF,Humidity,Sea Level PressureIn,VisibilityMPH,Wind Direction,Wind SpeedMPH,Gust SpeedMPH,PrecipitationIn,Events,Conditions,WindDirDegrees,DateUTC
12:53 AM,75.9,71.1,85,30.09,10.0,Calm,Calm,-,N/A,,Scattered Clouds,0,2013-09-16 04:53:00
1:53 AM,73.9,71.1,91,30.09,10.0,SSE,3.5,-,N/A,,Mostly Cloudy,150,2013-09-16 05:53:00
2:03 AM,73.4,71.6,94,30.09,10.0,Calm,Calm,-,N/A,,Mostly Cloudy,0,2013-09-16 06:03:00
2:53 AM,73.9,71.1,91,30.08,10.0,Calm,Calm,-,N/A,,Clear,0,2013-09-16 06:53:00
3:53 AM,73.9,71.1,91,30.07,10.0,Calm,Calm,-,N/A,,Clear,0,2013-09-16 07:53:00
4:53 AM,73.9,71.1,91,30.07,10.0,Calm,Calm,-,N/A,,Clear,0,2013-09-16 08:53:00
5:53 AM,73.9,71.1,91,30.06,10.0,Calm,Calm,-,N/A,,Clear,0,2013-09-16 09:53:00
6:53 AM,73.0,70.0,90,30.06,10.0,Calm,Calm,-,N/A,,Clear,0,2013-09-16 10:53:00
7:53 AM,72.0,69.1,91,30.08,10.0,Calm,Calm,-,N/A,,Clear,0,2013-09-16 11:53:00
8:53 AM,75.9,71.1,85,30.09,10.0,ESE,8.1,-,N/A,,Clear,120,2013-09-16 12:53:00
9:53 AM,80.1,73.0,79,30.11,10.0,ESE,4.6,-,N/A,,Clear,120,2013-09-16 13:53:00
10:53 AM,84.0,71.1,65,30.10,10.0,Calm,Calm,-,N/A,,Partly Cloudy,0,2013-09-16 14:53:00
11:53 AM,88.0,71.1,57,30.09,10.0,Variable,3.5,-,N/A,,Partly Cloudy,0,2013-09-16 15:53:00
12:53 PM,90.0,68.0,48,30.08,10.0,NNE,4.6,-,N/A,,Partly Cloudy,30,2013-09-16 16:53:00
1:53 PM,93.0,68.0,44,30.05,10.0,ENE,8.1,-,N/A,,Mostly Cloudy,70,2013-09-16 17:53:00
2:53 PM,93.0,66.9,42,30.03,10.0,ENE,5.8,-,N/A,,Mostly Cloudy,70,2013-09-16 18:53:00
3:53 PM,91.0,69.1,48,30.00,10.0,South,6.9,-,N/A,,Mostly Cloudy,170,2013-09-16 19:53:00
4:53 PM,91.9,68.0,45,29.99,10.0,ESE,4.6,-,N/A,,Scattered Clouds,110,2013-09-16 20:53:00
5:53 PM,91.0,69.1,48,29.99,10.0,SE,11.5,-,N/A,,Mostly Cloudy,140,2013-09-16 21:53:00
6:13 PM,87.8,68.0,52,29.99,10.0,SSE,6.9,-,N/A,Thunderstorm,Thunderstorm,150,2013-09-16 22:13:00
6:53 PM,82.9,71.1,67,30.00,10.0,West,4.6,-,N/A,Thunderstorm,Thunderstorm,270,2013-09-16 22:53:00
7:28 PM,80.6,71.6,74,30.01,10.0,West,6.9,-,N/A,,Scattered Clouds,270,2013-09-16 23:28:00
7:53 PM,79.0,71.1,77,30.01,10.0,West,3.5,-,N/A,,Scattered Clouds,270,2013-09-16 23:53:00
8:53 PM,78.1,71.1,79,30.04,10.0,Calm,Calm,-,N/A,,Scattered Clouds,0,2013-09-17 00:53:00
9:53 PM,79.0,70.0,74,30.04,10.0,Calm,Calm,-,N/A,,Scattered Clouds,0,2013-09-17 01:53:00
10:53 PM,78.1,71.1,79,30.06,10.0,SSE,5.8,-,N/A,,Scattered Clouds,160,2013-09-17 02:53:00
11:53 PM,79.0,71.1,77,30.05,10.0,NW,3.5,-,N/A,,Clear,320,2013-09-17 03:53:00